Location: Kirchberg
(47.4114°N, 9.0398°E)
Time: 06:58:12
(UTC+00:00)

Resurs 01 Rocket - Pass Details

Date: 03 March 2021
Orbit: 635 x 643 km, 98.0° (Epoch: 12 April)

Event Time Altitude Azimuth Distance (km) Brightness Sun altitude
Exits shadow 19:12:40 28° 38° (NE) 1,193 2.8 -21.1°
Drops below altitude 10° 19:15:31 10° 4° (N) 2,035 4.3 -21.5°
Sets 19:17:53 0° 355° (N) 2,949 5.3 -21.9°
